This is the latest recevied weather packets stored in our database for station/object DO7ZT-13. If no packets are shown the sender has not sent any weather packets the latest 10 day(s).
| Time | Temp. | Humidity | Pressure | Rain* | Wind** | Luminosity | Snow |
|---|---|---|---|---|---|---|---|
| 1777982108 | 21.11° C | 55% | 1007.9 hPa | 0 mm | 1.34 m/s, 0° | - | - |
| 1777981833 | 21.11° C | 56% | 1007.9 hPa | 0 mm | 0.45 m/s, 342° | - | - |
| 1777981521 | 20° C | 54% | 1007.9 hPa | 0 mm | 0.89 m/s, 308° | - | - |
| 1777981208 | 20° C | 55% | 1007.9 hPa | 0 mm | 1.34 m/s, 300° | - | - |
| 1777980921 | 21.11° C | 56% | 1007.9 hPa | 0 mm | 0.89 m/s, 308° | - | - |
| 1777980608 | 21.11° C | 56% | 1008 hPa | 0 mm | 1.34 m/s, 280° | - | - |
| 1777980321 | 20° C | 57% | 1008 hPa | 0 mm | 1.34 m/s, 354° | - | - |
| 1777980008 | 20° C | 57% | 1008 hPa | 0 mm | 0.89 m/s, 330° | - | - |
| 1777979720 | 20° C | 57% | 1008 hPa | 0 mm | 0.89 m/s, 309° | - | - |
| 1777979408 | 21.11° C | 54% | 1008 hPa | 0 mm | 0.89 m/s, 6° | - | - |
| 1777979120 | 21.11° C | 56% | 1008 hPa | 0 mm | 1.34 m/s, 328° | - | - |
| 1777978808 | 22.22° C | 55% | 1008 hPa | 0 mm | 0.89 m/s, 314° | - | - |
| 1777978520 | 21.11° C | 56% | 1008 hPa | 0 mm | 0.45 m/s, 44° | - | - |
| 1777978208 | 21.11° C | 54% | 1008 hPa | 0 mm | 0.89 m/s, 262° | - | - |
| 1777977920 | 21.11° C | 54% | 1008.2 hPa | 0 mm | 0.89 m/s, 313° | - | - |
| 1777977608 | 21.11° C | 54% | 1008.2 hPa | 0 mm | 1.34 m/s, 330° | - | - |
| 1777977320 | 20° C | 56% | 1008.2 hPa | 0 mm | 1.79 m/s, 330° | - | - |
| 1777977008 | 20° C | 57% | 1008.4 hPa | 0 mm | 0.89 m/s, 297° | - | - |
| 1777976408 | 20° C | 56% | 1008.4 hPa | 0 mm | 0.89 m/s, 324° | - | - |
| 1777976120 | 20° C | 59% | 1008.5 hPa | 0 mm | 0.45 m/s, 302° | - | - |
| 1777975808 | 18.89° C | 61% | 1008.5 hPa | 0 mm | 0.45 m/s, 348° | - | - |
| 1777975520 | 20° C | 61% | 1008.5 hPa | 0 mm | 0.89 m/s, 256° | - | - |
| 1777975207 | 20° C | 59% | 1008.6 hPa | 0 mm | 0.45 m/s, 336° | - | - |
| 1777974920 | 20° C | 59% | 1008.6 hPa | 0 mm | 0.89 m/s, 308° | - | - |
| 1777974607 | 20° C | 59% | 1008.6 hPa | 0 mm | 0 m/s | - | - |
* Rain latest hour (hover to see other rain measurements)
** Current wind speed in m/s (hover to see current wind gust speed)